Regional Weather Roundup
Issued by NWS

Home | Current Version | Previous Version | Graphics & Text | Print | Product List | Glossary On
Versions: 1 2 3 4 5 6 7 8 9 10 11 12 13 14 15 16 17 18 19 20 21 22 23 24 25 26 27 28 29 30 31 32 33 34 35 36 37 38 39 40 41 42 43 44 45 46 47 48 49 50
000
ASUS43 KTOP 242008
RWRKS

WEATHER ROUNDUP FOR KANSAS
NATIONAL WEATHER SERVICE GOODLAND KS
300 PM CDT SUN MAY 24 2015

NOTE:  "FAIR" INDICATES FEW OR NO CLOUDS BELOW 12,000 FEET WITH NO
SIGNIFICANT WEATHER AND/OR OBSTRUCTIONS TO VISIBILITY.

KSZ001>006-013>018-027>032-041>047-242100-
NORTHWEST KANSAS

CITY           SKY/WX    TMP DP  RH WIND       PRES   REMARKS
GOODLAND       MOSUNNY   67  54  63 SE8       29.82F
HAYS           CLOUDY    68  55  64 SE9       29.83F
HILL CITY      PTSUNNY   68  58  70 S7        29.83F
RUSSELL        CLOUDY    69  58  67 S10       29.83S
$$

KSZ061>065-074>080-084>089-242100-
SOUTHWEST KANSAS

CITY           SKY/WX    TMP DP  RH WIND       PRES   REMARKS
DODGE CITY     CLOUDY    64  57  78 S9        29.85S
ELKHART          N/A     71  55  56 SE8         N/A
GARDEN CITY    CLOUDY    64  57  78 SE15      29.83F
GREAT BEND     CLOUDY    66  61  82 SE12      29.84S
LIBERAL        PTSUNNY   72  57  60 SE7       29.82F
PRATT          CLOUDY    64  57  77 SE9       29.86F
$$

KSZ066>073-081>083-090>101-242100-
SOUTHEAST KANSAS

CITY           SKY/WX    TMP DP  RH WIND       PRES   REMARKS
CHANUTE        LGT RAIN  67  63  87 S8        29.89F
HUTCHINSON     CLOUDY    68  60  75 SE8       29.85F
MEDICINE LODGE   N/A     66  60  81 S12G20    29.84F
NEWTON         CLOUDY    68  59  73 S10       29.89S
WICHITA INTL   CLOUDY    69  60  73 S16       29.86F
WICHITA JABRA  CLOUDY    68  60  75 S12       29.86F
WICHITA MCCONL CLOUDY    68  60  77 SE14      29.87F
WINFIELD       RAIN      63  61  93 S10       29.90S FOG
$$

KSZ007>012-019>026-033>040-048>060-102>105-242100-
NORTHEAST KANSAS

CITY           SKY/WX    TMP DP  RH WIND       PRES   REMARKS
CONCORDIA      CLOUDY    67  60  78 S8        29.84F
EMPORIA        LGT RAIN  66  61  84 S12       29.87S
LAWRENCE       CLOUDY    70  61  73 SW7       29.86F
MANHATTAN      CLOUDY    70  61  73 S10       29.84F
MARYSVILLE     CLOUDY    68  63  83 SW5       29.84S
OLATHE IND     CLOUDY    71  63  75 SW8       29.87F
OLATHE EXE     CLOUDY    71  64  78 SW6       29.87F
SALINA         CLOUDY    68  61  78 S9        29.85S
TOPEKA BILLARD CLOUDY    70  61  73 S8        29.86F
TOPEKA FORBES  LGT RAIN  71  62  73 SW10      29.86F
$$


USA.gov is the U.S. government's official web portal to all federal, state and local government web resources and services.